Location: Puketoi
(40.5833°S, 176.0167°E)
Time: 14:44:42
(UTC+00:00)

Cosmos 1980 Rocket - Pass Details

Date: 08 February 2023
Orbit: 828 x 851 km, 71.0° (Epoch: 22 March)

Event Time Altitude Azimuth Distance (km) Brightness Sun altitude
Exits shadow 14:49:36 16° 41° (NE) 2,068 4.1 -25.7°
Maximum altitude 14:52:27 23° 79° (E) 1,717 4.0 -25.4°
Drops below altitude 10° 14:56:47 10° 129° (SE) 2,469 5.6 -24.9°
Sets 14:59:41 0° 143° (SE) 3,409 6.8 -24.5°
